Preview of NWS' New Version of Forecast
This preview is not operational and should not be used for support decisions.

Regional Weather Roundup (RWR)

Issued by National Weather Service (NWS)

                            
000
ASUS46 KPQR 230010
RWROR 

OREGON REGIONAL WEATHER ROUNDUP
NATIONAL WEATHER SERVICE PORTLAND OR
500 PM PDT FRI MAR 22 2019

NOTE: "FAIR" INDICATES FEW OR NO CLOUDS BELOW 12,000 FEET WITH
NO SIGNIFICANT WEATHER AND/OR OBSTRUCTIONS TO VISIBILITY.

ORZ001>013-230100-
NORTHWEST OREGON

  
CITY           SKY/WX    TMP DP  RH WIND       PRES   REMARKS
ASTORIA        CLOUDY    52  48  86 SW13      29.96R                  
6HR MIN TEMP:  50; 6HR MAX TEMP:  53; 6HR PCP:  0.12;                

TILLAMOOK      CLOUDY    54  46  76 S7        30.00R                  
NEWPORT        PTSUNNY   52  50  93 SW7       30.02R FOG              
PORTLAND       CLOUDY    55  47  74 SE8       29.99R                  
6HR MIN TEMP:  51; 6HR MAX TEMP:  55; 6HR PCP:  0.04;                

VANCOUVER WA   CLOUDY    54  47  77 SE5       29.98S                  
6HR MIN TEMP:  50; 6HR MAX TEMP:  54; 6HR PCP:  0.05;                

SCAPPOOSE      CLOUDY    55  48  77 SE8       29.98S                  
6HR MIN TEMP:  52; 6HR MAX TEMP:  55; 6HR PCP:  0.02;                

HILLSBORO      CLOUDY    53  47  79 SE6       29.98S                  
6HR MIN TEMP:  48; 6HR MAX TEMP:  53; 6HR PCP:  0.06;                

AURORA         CLOUDY    54  49  83 SW6       29.99S                  
6HR MIN TEMP:  45; 6HR MAX TEMP:  54; 6HR PCP:  0.10;                

MCMINNVILLE    LGT RAIN  53  47  79 S12       29.98R                  
6HR MIN TEMP:  46; 6HR MAX TEMP:  54; 6HR PCP:  0.08;                

SALEM          CLOUDY    55  46  71 S12G18    29.97S                  
6HR MIN TEMP:  46; 6HR MAX TEMP:  55; 6HR PCP:  0.07;                

CORVALLIS      CLOUDY    54  49  83 S12       29.99S                  
EUGENE         CLOUDY    54  48  80 S12       29.99S                  
6HR MIN TEMP:  46; 6HR MAX TEMP:  54; 6HR PCP:  0.11;                

$$

ORZ021-028-230100-
SOUTHWEST OREGON

  
CITY           SKY/WX    TMP DP  RH WIND       PRES   REMARKS
NORTH BEND     LGT RAIN  52  51  97 SW8       30.03R FOG              
6HR MIN TEMP:  47; 6HR MAX TEMP:  55; 6HR PCP:  0.17;                

BROOKINGS      LGT RAIN  50  48  93 VRB5      30.06S FOG              
ROSEBURG       LGT RAIN  54  49  83 VRB6      30.00R                  
6HR MIN TEMP:  45; 6HR MAX TEMP:  56; 6HR PCP:  0.05;                

SEXTON SUMMIT  LGT RAIN  39  39 100 S16G25    29.98S VSB<1/4 WCI  30  
6HR MIN TEMP:  38; 6HR MAX TEMP:  40; 6HR PCP:  0.14;                

GRANTS PASS    DRIZZLE   52  46  82 CALM      30.03S                  
MEDFORD        LGT RAIN  51  45  79 CALM      30.03R                  
6HR MIN TEMP:  44; 6HR MAX TEMP:  52; 6HR PCP:  0.06;                

$$

ORZ014>016-041-230100-
COLUMBIA GORGE

  
CITY           SKY/WX    TMP DP  RH WIND       PRES   REMARKS
TROUTDALE      CLOUDY    54  48  80 E3        29.99R                  
6HR MIN TEMP:  51; 6HR MAX TEMP:  55; 6HR PCP:  0.04;                

HOOD RIVER     CLOUDY    54  41  62 W9        29.97R                  
THE DALLES     CLOUDY    58  40  51 N17       29.93R                  
6HR MIN TEMP:  52; 6HR MAX TEMP:  65;                                

$$

ORZ029>031-041-044-049-050-061>064-502-503-505>511-230100-
EASTERN OREGON

  
CITY           SKY/WX    TMP DP  RH WIND       PRES   REMARKS
MADRAS         CLOUDY    50  36  57 S15       29.99S                  
REDMOND        CLOUDY    49  37  63 S13       29.98R                  
6HR MIN TEMP:  45; 6HR MAX TEMP:  54; 6HR PCP:  0.01;                

BEND           CLOUDY    46  37  71 W7        29.99R                  
PRINEVILLE     CLOUDY    45  43  93 MISG      30.00R                  
KLAMATH FALLS  CLOUDY    45  32  60 S10       30.03R                  
6HR MIN TEMP:  43; 6HR MAX TEMP:  49; 6HR PCP: TRACE;                

LAKEVIEW       CLOUDY    39  34  81 S12       30.06F WCI  32          
HERMISTON      SUNNY     70  31  23 W18       29.87S                  
6HR MIN TEMP:  63; 6HR MAX TEMP:  72;                                

PENDLETON      SUNNY     65  35  33 NW7       29.88F                  
6HR MIN TEMP:  58; 6HR MAX TEMP:  66;                                

JOHN DAY       MOSUNNY   54  28  36 W14G21    29.95R                  
MEACHAM        MOSUNNY   53  30  41 VRB3      29.93S                  
6HR MIN TEMP:  49; 6HR MAX TEMP:  55;                                

LA GRANDE      PTSUNNY   60  32  34 NW6       29.92R                  
6HR MIN TEMP:  51; 6HR MAX TEMP:  61;                                

BAKER CITY     CLOUDY    57  38  48 NW10      29.92R                  
6HR MIN TEMP:  53; 6HR MAX TEMP:  63;                                

BURNS          CLOUDY    54  29  38 SW20      29.98R                  
6HR MIN TEMP:  48; 6HR MAX TEMP:  59;                                

ROME             N/A     58  26  29 SW21G29   29.97S                  
6HR MIN TEMP:  50; 6HR MAX TEMP:  61;                                

ONTARIO        CLOUDY    66  32  28 W9        29.93S                  
6HR MIN TEMP:  61; 6HR MAX TEMP:  70;                                

$$